K4YY Weather Reports


time (UTC)temp
C
wind
direction
speed
KPH
gust
KPH
rain 1hr
cm
rain 24hr
cm
rain mn
cm
humidity
%
barometer
mb
20260510104600 21 0.0 0.0 0.00 0.20 0.03 92 1013.5
20260510103519 21 0.0 1.6 0.00 0.20 0.03 92 1013.6
20260510102519 21 0.0 0.0 0.00 0.20 0.03 92 1013.5
20260510101539 21 0.0 1.6 0.00 0.20 0.03 92 1013.4
20260510100540 22 0.0 0.0 0.00 0.20 0.03 92 1013.2
20260510095519 22 0.0 0.0 0.00 0.20 0.03 92 1013.3
20260510094519 22 0.0 0.0 0.00 0.20 0.03 92 1013.2
20260510093519 22 0.0 0.0 0.00 0.20 0.03 92 1013.0
20260510092519 22 0.0 0.0 0.00 0.20 0.03 92 1012.8
20260510091518 22 0.0 0.0 0.00 0.20 0.03 92 1012.6
20260510090518 22 315 1.6 4.8 0.00 0.20 0.03 92 1012.7
20260510085518 22 0.0 0.0 0.00 0.20 0.03 92 1012.6
20260510084538 22 0.0 0.0 0.00 0.20 0.03 92 1012.2
20260510083518 22 0.0 0.0 0.00 0.20 0.03 92 1012.4
20260510082518 22 0.0 0.0 0.00 0.20 0.03 92 1012.1
20260510081538 22 0.0 0.0 0.00 0.20 0.03 92 1012.2
20260510080518 22 0.0 0.0 0.00 0.20 0.03 92 1012.4
20260510075518 22 0.0 0.0 0.00 0.20 0.03 92 1012.5
20260510074518 22 0.0 0.0 0.00 0.20 0.03 92 1012.7
20260510073518 22 0.0 0.0 0.00 0.20 0.03 92 1012.4
20260510072518 21 0.0 0.0 0.00 0.20 0.03 92 1012.1
20260510071518 22 0.0 0.0 0.00 0.20 0.03 92 1012.3
20260510070518 21 0.0 0.0 0.00 0.20 0.03 92 1012.4
20260510065518 21 0.0 0.0 0.00 0.20 0.03 92 1012.2
20260510064518 21 0.0 0.0 0.00 0.20 0.03 92 1012.4
20260510063518 21 0.0 0.0 0.00 0.20 0.03 92 1012.4
20260510062518 21 0.0 0.0 0.00 0.20 0.03 92 1012.4
20260510061518 21 0.0 0.0 0.00 0.20 0.03 92 1012.3
20260510060518 21 0.0 0.0 0.03 0.20 0.03 92 1012.5
20260510055518 21 0.0 0.0 0.03 0.20 0.03 92 1012.9
20260510054518 21 0.0 0.0 0.03 0.20 0.03 92 1013.0
20260510053518 21 0.0 0.0 0.03 0.20 0.03 92 1013.0
20260510052518 21 0.0 0.0 0.03 0.20 0.03 92 1013.1
20260510051518 21 0.0 0.0 0.03 0.20 0.03 91 1013.3
20260510050518 21 0.0 0.0 0.00 0.18 0.00 91 1013.5
20260510045518 21 0.0 0.0 0.00 1.27 0.00 92 1013.6
20260510044518 21 0.0 0.0 0.00 1.27 0.00 91 1013.6
20260510043518 21 0.0 0.0 0.00 1.27 0.00 91 1013.6
20260510042518 21 0.0 0.0 0.00 1.27 0.00 91 1013.5
20260510041538 21 0.0 0.0 0.00 1.27 0.00 91 1013.6
20260510040518 21 0.0 0.0 0.00 1.27 0.00 91 1013.5
20260510035519 21 0.0 0.0 0.00 1.30 1.27 91 1013.6
20260510034519 21 0.0 0.0 0.00 1.30 1.27 91 1013.8
20260510033519 21 0.0 0.0 0.00 1.30 1.27 91 1013.6
20260510032520 21 0.0 1.6 0.00 1.30 1.27 91 1013.7
20260510031519 21 225 1.6 3.2 0.00 1.30 1.27 91 1013.8
20260510030519 21 0.0 1.6 0.00 1.30 1.27 91 1013.5
20260510025519 21 225 1.6 3.2 0.00 1.30 1.27 91 1013.6
20260510024519 21 248 3.2 4.8 0.00 1.30 1.27 91 1013.4
20260510023519 21 0.0 3.2 0.00 1.30 1.27 91 1012.7
20260510022519 21 315 1.6 3.2 0.00 1.30 1.27 91 1013.1
20260510021540 21 0.0 0.0 0.00 1.30 1.27 91 1012.9
20260510020539 22 0.0 0.0 0.00 1.30 1.27 91 1012.8
20260510015600 22 0.0 0.0 0.00 1.30 1.27 91 1012.5
20260510014520 22 0.0 0.0 0.00 1.30 1.27 90 1012.4
20260510013520 22 0.0 0.0 0.00 1.30 1.27 90 1012.3
20260510012521 22 225 1.6 4.8 0.00 1.30 1.27 90 1012.5
20260510011519 22 0.0 0.0 0.00 1.30 1.27 90 1012.2
20260510010539 22 0.0 0.0 0.00 1.30 1.27 90 1012.1
20260510005520 22 0.0 0.0 0.00 1.30 1.27 90 1012.0
20260510004539 22 0.0 0.0 0.00 1.30 1.27 90 1012.0
20260510003519 22 0.0 0.0 0.00 1.30 1.27 90 1012.3
20260510002519 22 0.0 0.0 0.00 1.30 1.27 90 1012.3
20260510001520 22 0.0 3.2 0.00 1.30 1.27 90 1012.3
20260510000540 22 248 3.2 6.4 0.00 1.30 1.27 90 1012.6
20260509235520 22 270 3.2 6.4 0.00 1.30 1.27 90 1012.5
20260509234517 22 0.0 4.8 0.00 1.30 1.27 90 1012.5
20260509233519 22 0.0 0.0 0.00 1.30 1.27 90 1012.4
20260509232518 22 0.0 0.0 0.00 1.30 1.27 90 1012.4
20260509231517 22 0.0 1.6 0.00 1.30 1.27 90 1012.5
20260509230518 22 23 1.6 4.8 0.00 1.30 1.27 90 1012.4
20260509225517 22 0.0 3.2 0.00 1.30 1.27 90 1012.2
20260509224517 22 0.0 0.0 0.00 1.30 1.27 90 1012.3
20260509223559 22 0.0 0.0 0.00 1.30 1.30 89 1012.3
20260509223418 22 0.0 0.0 0.00 1.30 1.30 89 1012.2